TimeMDT,TemperatureF,Dew PointF,Humidity,Sea Level PressureIn,VisibilityMPH,Wind Direction,Wind SpeedMPH,Gust SpeedMPH,PrecipitationIn,Events,Conditions,WindDirDegrees,DateUTC
12:53 AM,32.0,19.0,59,30.02,10.0,ENE,10.4,-,N/A,,Overcast,60,2013-03-27 06:53:00
1:53 AM,32.0,18.0,56,30.01,10.0,ENE,8.1,-,N/A,,Overcast,60,2013-03-27 07:53:00
2:53 AM,33.1,18.0,54,30.01,10.0,Calm,Calm,-,N/A,,Overcast,0,2013-03-27 08:53:00
3:53 AM,33.1,18.0,54,30.00,10.0,NNE,3.5,-,N/A,,Overcast,30,2013-03-27 09:53:00
4:53 AM,32.0,18.0,56,30.02,10.0,Calm,Calm,-,N/A,,Overcast,0,2013-03-27 10:53:00
5:53 AM,30.0,17.1,59,30.05,10.0,NW,3.5,-,N/A,,Overcast,320,2013-03-27 11:53:00
6:53 AM,26.1,16.0,66,30.08,10.0,Calm,Calm,-,N/A,,Clear,0,2013-03-27 12:53:00
7:53 AM,28.0,16.0,61,30.10,10.0,Calm,Calm,-,N/A,,Clear,0,2013-03-27 13:53:00
8:53 AM,33.1,17.1,52,30.11,10.0,Calm,Calm,-,N/A,,Clear,0,2013-03-27 14:53:00
9:53 AM,41.0,21.9,47,30.09,10.0,South,3.5,-,N/A,,Clear,170,2013-03-27 15:53:00
10:53 AM,46.9,30.0,52,30.08,10.0,Variable,4.6,-,N/A,,Clear,0,2013-03-27 16:53:00
11:53 AM,50.0,30.9,48,30.06,10.0,Variable,5.8,-,N/A,,Clear,0,2013-03-27 17:53:00
12:53 PM,54.0,30.0,40,30.05,10.0,South,9.2,-,N/A,,Unknown,190,2013-03-27 18:53:00
1:53 PM,55.0,28.0,35,30.03,10.0,Variable,3.5,-,N/A,,Clear,0,2013-03-27 19:53:00
2:53 PM,55.9,28.9,36,30.00,10.0,Calm,Calm,-,N/A,,Partly Cloudy,0,2013-03-27 20:53:00
3:53 PM,57.9,28.0,32,29.97,10.0,Variable,4.6,-,N/A,,Partly Cloudy,0,2013-03-27 21:53:00
4:53 PM,57.9,28.0,32,29.97,10.0,Variable,4.6,-,N/A,,Clear,0,2013-03-27 22:53:00
5:53 PM,57.0,27.0,32,29.98,10.0,SSE,6.9,-,N/A,,Overcast,150,2013-03-27 23:53:00
6:53 PM,55.0,28.9,37,30.01,10.0,SE,3.5,-,N/A,,Overcast,140,2013-03-28 00:53:00
7:53 PM,53.1,28.9,40,30.02,10.0,ESE,6.9,-,0.00,,Overcast,110,2013-03-28 01:53:00
8:53 PM,48.9,34.0,56,30.04,10.0,SE,8.1,-,0.00,,Scattered Clouds,130,2013-03-28 02:53:00
9:53 PM,45.0,37.0,74,30.05,10.0,SE,8.1,-,N/A,,Scattered Clouds,130,2013-03-28 03:53:00
10:53 PM,42.1,32.0,67,30.03,10.0,SE,10.4,-,N/A,,Clear,140,2013-03-28 04:53:00
11:53 PM,42.1,28.9,60,30.01,10.0,SE,11.5,-,N/A,,Clear,140,2013-03-28 05:53:00